Date String (YYYY-MM-DD hh:mm:ss) UTC,Instrument flags,Ambient pressure (hPa),Sample flow (lpm),Bypass flow (lpm),Sample temperature (°C),Ambient temperature (°C),ASC tube jacket temperature (°C),LED temperature (°C),Box temperature (°C),Sample RH (%),Span deviation,Mass concentration (μg/m³),Mass concentration (μg/m³),Mass concentration (μg/m³)
DateTimeUTC,F1_M11,P_M11,Q1_M11,Q2_M11,T1_M11,T2_M11,T3_M11,T4_M11,T5_M11,U1_M11,ZSPAN_M11,X0_M11,X2_M11,X1_M11
2022-05-30 12:00:00,,0812.9,5.00,0.00,26.9,25.8,00.0,35.8,28.8,12.5,0000.0,0008.36,0002.43,0000.97
2022-05-30 12:01:00,,0812.8,4.99,0.00,26.9,25.8,00.0,35.8,28.8,12.3,0000.0,0008.27,0002.41,0000.97
2022-05-30 12:02:00,,0812.9,5.00,0.00,26.9,25.8,00.0,35.8,28.8,12.3,0000.0,0008.17,0002.43,0000.96
2022-05-30 12:03:00,,0812.9,5.00,0.00,26.9,25.9,00.0,35.8,28.9,12.2,0000.0,0008.29,0002.52,0000.97
2022-05-30 12:04:00,,0812.9,5.00,0.00,26.9,25.9,00.0,35.8,28.8,12.1,0000.0,0007.87,0002.58,0000.99
2022-05-30 12:05:00,,0812.9,5.00,0.00,26.9,25.9,00.0,35.8,28.9,11.9,0000.0,0008.05,0002.56,0000.99
2022-05-30 12:06:00,,0812.9,5.00,0.00,27.0,25.9,00.0,35.8,28.9,11.8,0000.0,0008.16,0002.61,0000.98
2022-05-30 12:07:00,,0812.9,4.99,0.00,27.0,25.9,00.0,35.8,28.9,12.0,0000.0,0008.09,0002.58,0000.96
2022-05-30 12:08:00,,0812.9,5.00,0.00,27.0,25.9,00.0,35.9,28.9,12.1,0000.0,0007.96,0002.48,0000.94
2022-05-30 12:09:00,,0812.8,5.01,0.00,27.0,25.9,00.0,35.9,28.9,12.1,0000.0,0007.90,0002.45,0000.94
2022-05-30 12:10:00,,0812.9,5.00,0.00,27.0,25.9,00.0,35.9,28.9,12.0,0000.0,0007.71,0002.35,0000.93
2022-05-30 12:11:00,,0812.9,5.00,0.00,27.0,25.9,00.0,35.9,28.9,12.9,0000.0,0006.43,0002.30,0000.92
2022-05-30 12:12:00,,0812.9,4.99,0.00,27.0,26.0,00.0,35.9,28.9,12.9,0000.0,0006.23,0002.31,0000.94
2022-05-30 12:13:00,,0812.9,5.00,0.00,27.0,26.0,00.0,35.9,28.9,13.4,0000.0,0006.46,0002.38,0000.96
2022-05-30 12:14:00,,0813.0,5.00,0.00,27.0,26.0,00.0,35.9,28.9,12.8,0000.0,0006.51,0002.35,0000.96
2022-05-30 12:15:00,,0812.9,5.01,0.00,27.0,26.0,00.0,35.9,28.9,12.4,0000.0,0006.41,0002.30,0000.95
2022-05-30 12:16:00,,0813.0,5.01,0.00,27.0,26.0,00.0,35.9,28.9,12.4,0000.0,0006.49,0002.29,0000.94
2022-05-30 12:17:00,,0813.0,5.00,0.00,27.0,26.0,00.0,35.9,28.9,12.1,0000.0,0006.95,0002.25,0000.95
2022-05-30 12:18:00,,0813.0,4.99,0.00,27.0,26.0,00.0,35.9,29.0,12.1,0000.0,0006.77,0002.23,0000.96
2022-05-30 12:19:00,,0813.0,5.00,0.00,27.0,26.0,00.0,35.9,29.0,12.2,0000.0,0006.98,0002.29,0000.97
2022-05-30 12:20:00,,0813.0,5.00,0.00,27.0,26.0,00.0,35.9,29.0,12.3,0000.0,0007.13,0002.29,0000.95
2022-05-30 12:21:00,,0813.0,5.00,0.00,27.1,26.0,00.0,35.9,29.0,12.5,0000.0,0007.26,0002.36,0000.95
2022-05-30 12:22:00,,0813.2,5.01,0.00,27.1,26.0,00.0,35.9,29.0,12.6,0000.0,0007.28,0002.41,0000.95
2022-05-30 12:23:00,,0813.2,5.01,0.00,27.1,26.0,00.0,35.9,29.0,12.4,0000.0,0007.63,0002.51,0000.93
2022-05-30 12:24:00,,0813.2,5.00,0.00,27.1,26.0,00.0,35.9,29.0,13.0,0000.0,0007.87,0002.54,0000.91
2022-05-30 12:25:00,,0813.3,5.00,0.00,27.1,26.0,00.0,35.9,29.0,12.3,0000.0,0008.67,0002.59,0000.91
2022-05-30 12:26:00,,0813.2,4.99,0.00,27.0,26.0,00.0,35.9,29.0,13.3,0000.0,0009.08,0002.58,0000.91
2022-05-30 12:27:00,,0813.1,4.99,0.00,27.0,25.9,00.0,35.9,29.0,13.5,0000.0,0009.00,0002.50,0000.86
2022-05-30 12:28:00,,0813.1,5.01,0.00,27.0,25.9,00.0,35.9,28.9,13.7,0000.0,0008.25,0002.34,0000.79
2022-05-30 12:29:00,,0813.2,5.00,0.00,27.0,25.9,00.0,35.9,28.9,13.8,0000.0,0008.09,0002.16,0000.71
2022-05-30 12:30:00,,0813.2,5.00,0.00,27.0,25.8,00.0,35.9,28.9,13.8,0000.0,0007.83,0001.96,0000.64
2022-05-30 12:31:00,,0813.2,5.01,0.00,27.0,25.8,00.0,35.9,28.8,14.5,0000.0,0007.49,0001.78,0000.58
2022-05-30 12:32:00,,0813.1,5.00,0.00,27.0,25.7,00.0,35.9,28.8,14.3,0000.0,0006.97,0001.59,0000.52
2022-05-30 12:33:00,,0813.0,5.01,0.00,27.0,25.7,00.0,35.9,28.8,14.6,0000.0,0007.35,0001.41,0000.45
2022-05-30 12:34:00,,0813.1,5.00,0.00,26.9,25.6,00.0,35.9,28.8,13.7,0000.0,0007.29,0001.17,0000.40
2022-05-30 12:35:00,,0813.2,5.01,0.00,26.9,25.6,00.0,35.9,28.7,13.4,0000.0,0006.58,0000.94,0000.33
2022-05-30 12:36:00,,0813.2,4.99,0.00,26.9,25.5,00.0,35.9,28.7,14.0,0000.0,0004.60,0000.70,0000.26
2022-05-30 12:37:00,,0813.3,5.00,0.00,26.9,25.5,00.0,35.9,28.7,14.3,0000.0,0003.26,0000.52,0000.20
2022-05-30 12:38:00,,0813.4,5.01,0.00,26.9,25.5,00.0,35.9,28.7,14.5,0000.0,0003.23,0000.47,0000.18
2022-05-30 12:39:00,,0813.3,5.00,0.00,26.9,25.4,00.0,35.9,28.7,14.5,0000.0,0003.24,0000.53,0000.20
2022-05-30 12:40:00,,0813.4,4.99,0.00,26.8,25.4,00.0,35.8,28.6,14.2,0000.0,0003.12,0000.52,0000.20
2022-05-30 12:41:00,,0813.4,5.01,0.00,26.8,25.4,00.0,35.8,28.6,14.0,0000.0,0003.10,0000.52,0000.21
2022-05-30 12:42:00,,0813.4,5.00,0.00,26.8,25.4,00.0,35.8,28.6,14.3,0000.0,0003.17,0000.52,0000.21
2022-05-30 12:43:00,,0813.4,5.00,0.00,26.8,25.4,00.0,35.8,28.6,14.2,0000.0,0003.70,0000.55,0000.22
2022-05-30 12:44:00,,0813.3,5.00,0.00,26.8,25.4,00.0,35.8,28.6,14.2,0000.0,0002.95,0000.54,0000.22
2022-05-30 12:45:00,,0813.4,4.99,0.00,26.8,25.4,00.0,35.8,28.6,14.3,0000.0,0002.07,0000.52,0000.21
2022-05-30 12:46:00,,0813.4,5.00,0.00,26.8,25.4,00.0,35.8,28.6,14.5,0000.0,0002.09,0000.52,0000.21
2022-05-30 12:47:00,,0813.4,5.00,0.00,26.8,25.4,00.0,35.8,28.6,14.6,0000.0,0002.07,0000.51,0000.20
2022-05-30 12:48:00,,0813.2,5.01,0.00,26.8,25.4,00.0,35.8,28.7,14.4,0000.0,0001.97,0000.50,0000.20
2022-05-30 12:49:00,,0813.0,4.98,0.00,26.8,25.4,00.0,35.8,28.6,14.2,0000.0,0001.65,0000.48,0000.20
2022-05-30 12:50:00,,0813.2,5.00,0.00,26.8,25.4,00.0,35.7,28.6,14.5,0000.0,0001.60,0000.46,0000.20
2022-05-30 12:51:00,,0813.1,5.00,0.00,26.7,25.4,00.0,35.7,28.6,14.8,0000.0,0001.60,0000.46,0000.20
2022-05-30 12:52:00,,0813.2,5.00,0.00,26.7,25.4,00.0,35.7,28.6,14.5,0000.0,0001.63,0000.48,0000.21
2022-05-30 12:53:00,,0813.1,4.99,0.00,26.7,25.3,00.0,35.7,28.6,14.2,0000.0,0001.60,0000.50,0000.21
2022-05-30 12:54:00,,0813.0,5.00,0.00,26.7,25.3,00.0,35.7,28.6,14.3,0000.0,0001.15,0000.46,0000.20
2022-05-30 12:55:00,,0813.0,5.00,0.00,26.7,25.3,00.0,35.7,28.5,13.9,0000.0,0000.83,0000.45,0000.21
2022-05-30 12:56:00,,0812.9,5.01,0.00,26.7,25.3,00.0,35.7,28.5,13.7,0000.0,0000.86,0000.46,0000.22
2022-05-30 12:57:00,,0812.9,5.00,0.00,26.7,25.3,00.0,35.7,28.5,13.6,0000.0,0001.04,0000.49,0000.23
2022-05-30 12:58:00,,0812.9,5.00,0.00,26.7,25.2,00.0,35.7,28.5,13.2,0000.0,0001.14,0000.53,0000.24
2022-05-30 12:59:00,,0813.0,4.99,0.00,26.6,25.2,00.0,35.6,28.5,12.5,0000.0,0001.17,0000.55,0000.25
